Location: Ahstedt
(52.2048°N, 10.1060°E)
Time: 14:56:23
(UTC+00:00)

ACS3 Solar Sail - Visible Passes

Search period start: 19 April 2026 00:00
Search period end: 29 April 2026 00:00
Orbit: 872 x 974 km, 97.2° (Epoch: 19 April)

Date Brightness Start Highest point End Pass type
(mag) Time Alt. Az. Time Alt. Az. Time Alt. Az.
19 Apr 1.7 00:41:41 10° NNE 00:47:43 84° ESE 00:49:26 50° S visible
19 Apr 3.2 02:24:55 10° N 02:29:29 23° WNW 02:32:59 14° W visible
19 Apr 3.4 23:09:34 10° NE 23:14:00 21° E 23:15:30 19° ESE visible
20 Apr 1.7 00:51:04 10° NNE 00:57:07 84° WNW 00:59:02 47° SSW visible
20 Apr 3.3 02:34:30 10° N 02:38:43 20° NW 02:42:34 11° W visible
20 Apr 3.2 23:18:39 10° NE 23:23:30 24° E 23:25:03 22° ESE visible
21 Apr 1.8 01:00:26 10° N 01:06:26 73° WNW 01:08:34 42° SW visible
21 Apr 3.5 02:44:03 10° NNW 02:47:54 18° NW 02:51:47 10° W visible
21 Apr 3.0 23:27:45 10° NNE 23:32:55 28° E 23:34:32 25° ESE visible
22 Apr 1.9 01:09:45 10° N 01:15:42 63° WNW 01:18:04 37° SW visible
22 Apr 3.6 02:53:37 10° NNW 02:57:01 16° NW 03:00:26 10° W visible
22 Apr 2.8 23:36:50 10° NNE 23:42:16 33° E 23:43:59 29° ESE visible
23 Apr 2.1 01:19:02 10° N 01:24:54 54° WNW 01:27:31 32° SW visible
23 Apr 3.7 03:03:12 10° NNW 03:06:03 14° NW 03:08:56 10° WNW visible
23 Apr 2.6 23:45:54 10° NNE 23:51:33 39° E 23:53:22 32° SE visible
24 Apr 2.3 01:28:17 10° N 01:34:01 47° WNW 01:36:54 28° WSW visible
24 Apr 3.8 03:12:52 10° NNW 03:15:02 12° NW 03:17:13 10° WNW visible
24 Apr 2.4 23:54:56 10° NNE 00:00:46 45° E 00:02:42 35° SE visible
25 Apr 2.5 01:37:29 10° N 01:43:05 41° WNW 01:46:13 24° WSW visible
25 Apr 3.9 03:22:52 10° NNW 03:23:57 10° NW 03:25:02 10° NW visible
26 Apr 2.2 00:03:58 10° NNE 00:09:55 53° E 00:11:59 37° SSE visible
26 Apr 2.7 01:46:39 10° N 01:52:05 36° WNW 01:55:30 20° WSW visible
26 Apr 3.9 22:33:04 10° NE 22:35:23 12° ENE 22:37:42 10° E visible
27 Apr 2.0 00:12:57 10° NNE 00:18:59 61° E 00:21:12 39° SSE visible
27 Apr 2.9 01:55:48 10° N 02:01:01 31° WNW 02:04:43 17° WSW visible
27 Apr 3.8 22:41:20 10° NE 22:44:33 15° E 22:46:52 12° ESE visible
28 Apr 1.8 00:21:54 10° NNE 00:28:00 71° E 00:30:23 39° S visible
28 Apr 3.0 02:04:54 10° N 02:09:54 28° WNW 02:13:53 14° WSW visible
28 Apr 3.6 22:49:48 10° NE 22:53:40 17° E 22:55:59 14° ESE visible
